Location: Observatoire
(46.1952°N, 5.3391°E)
Time: 15:07:33
(UTC+01:00)

A-11 Canister half - Pass Details

Date: 22 February 2026
Orbit: 1513 x 1687 km, 47.2° (Epoch: 11 March)

Event Time Altitude Azimuth Distance (km) Brightness Sun altitude
Rises 17:51:56 0° 179° (S) 4,912 11.9 2.9°
Reaches altitude 10° 17:56:34 10° 161° (SSE) 3,939 11.2 2.2°
Maximum altitude 18:02:27 17° 125° (SE) 3,388 10.5 1.2°
Drops below altitude 10° 18:08:20 10° 89° (E) 3,941 10.5 0.2°
Enters shadow 18:12:41 - 72° (ENE) 4,858 10.9 -0.5°
Sets 18:12:55 0° 71° (ENE) 4,916 - -0.5°
